Showing default

NOAA 10, 16969

Orbit data source: Space-Track

NOAA 10, 16969 is a payload satellite owned by NOAA (US) in SSO that was launched on Wed, 17 Sep 1986 UTC via an ATLAS E launch vehicle from the Air Force Western Test Range (AFWTR). Payload-class satellites include a variety of spacecraft equipped with specific instruments for various scientific and technological missions. These include communications satellites like Starlink; space stations such as the ISS; scientific satellites like the Hubble; Earth observation satellites from companies like Planet Labs, Umbra, and HawkEye 360; GPS; miniature CubeSats for education and research; and military/defense satellites.

Loading next visibility...
Identifier
16969, 1986-073A
Orbit
SSO
Country
Flag of USUS
Related business
Manufacturer
GE/East Windsor
Mission
Non-operational Civil Weather
Bus & Motor
ATN, STAR 37S
Mass
1,712 kg wet, 1,030 kg dry
Launch date (UTC)
1986-09-17 (40 years ago)
Launch vehicle
ATLAS E
Launch site
Air Force Western Test Range (AFWTR)
Object type
Payload
Rocket body
Debris
Shape & HBR
Cyl + 1 Pan, 4.0 m
Radar Cross Section
9.628 m², Large (>1 m²)

Expand to show TLE details & history
Last TLE update: 2 days ago

TLE from 2 days ago
0 NOAA 10
1 16969U 86073A   26171.47730083  .00000080  00000-0  48909-4 0  9996
2 16969  98.7032 164.7107 0011889 352.3787 159.5218 14.29178681 69889
Epoch: 2026-06-20T11:27Z
TLE epoch observation values (Epoch: 2026-06-20T11:27:18.791Z)
Latitude
27.74317°
Longitude
-91.21533°
Altitude
805.878 km
Speed
7.449 km/s
True Right ascension
23h 17m 13s
True Declination
27° 36' 10"
Sunlit
Object was in daylight at epoch
Visualization orbit readout
Latitude
Unknown
Longitude
Unknown
Altitude
Unknown
Speed
Unknown
Apparent Right ascension
Unknown
Apparent Declination
Unknown
Sunlit
N/A
Visualization observer readout
Local Sidereal Time
23:08:25
Azimuth
Unknown
Elevation
Unknown
Doppler factor
Unknown
Orbital elements
Apogee altitude
800.148 km
Perigee altitude
783.099 km
Semi-major axis
7,169.76 km
Eccentricity
0.00119
Inclination
98.7032°
RAAN
164.7107°
Arg. of periapsis
352.3787°
True anomaly
159.5694°
Mean anomaly
159.5218°
Eccentric anomaly
159.5456°
Mean motion
3.57508 °/min
Orbital period
100.7 mins
BSTAR
0.000048909
Loading maneuver chart data...
Computing Atmospheric mass density...
Loading historical data...
Loading historical data...
Loading historical data...
Loading historical data...
Loading historical data...
Loading historical data...
Loading historical data...

Documentation

Showing up to 5 results
|